Location: Melbourne
(37.8170°S, 144.9670°E)
Time: 02:11:16
(UTC+10:00)

Vanguard 1 Rocket - Visible Passes

Search period start: 31 July 2015 00:00
Search period end: 10 August 2015 00:00
Orbit: 652 x 4226 km, 34.3° (Epoch: 27 July)

Date Brightness Start Highest point End Pass type
(mag) Time Alt. Az. Time Alt. Az. Time Alt. Az.
31 Jul 9.6 19:05:25 10° WNW 19:08:52 18° NNW 19:13:10 10° NNE visible
01 Aug 9.0 17:54:22 10° WNW 17:58:06 25° NNW 18:02:42 10° NE visible
02 Aug 10.0 19:10:55 10° NW 19:12:28 11° NNW 19:13:57 10° N visible
03 Aug 9.5 17:58:33 10° WNW 18:01:38 18° NNW 18:05:06 10° NNE visible
05 Aug 9.8 18:03:43 10° NW 18:05:07 11° NNW 18:06:28 10° N visible
09 Aug 12.3 05:59:12 10° NNE 05:59:48 10° NE 06:02:26 10° NE visible
